Location: *
(46.1866°S, 178.5290°W)
Time: 14:43:06
(UTC+00:00)

Cosmos 2278 Rocket - Pass Details

Date: 19 May 2021
Orbit: 841 x 845 km, 71.0° (Epoch: 21 June)

Event Time Altitude Azimuth Distance (km) Brightness Sun altitude
Rises 06:01:42 0° 215° (SW) 3,441 5.7 -16.0°
Reaches altitude 10° 06:04:25 10° 224° (SW) 2,498 5.1 -16.5°
Maximum altitude 06:09:22 31° 284° (WNW) 1,464 4.2 -17.3°
Drops below altitude 10° 06:14:16 10° 344° (NNW) 2,468 4.9 -18.2°
Sets 06:16:56 0° 354° (N) 3,394 5.6 -18.6°
